Regional Weather Roundup
Issued by NWS

Home | Current Version | Previous Version | Text Only | Print | Product List | Glossary Off
Versions: 1 2 3 4 5 6 7 8 9 10 11 12 13 14 15 16 17 18 19 20 21 22 23 24 25 26 27 28 29 30 31 32 33 34 35 36 37 38 39 40 41 42 43 44 45 46 47 48 49 50

079
ASUS45 KBOU 060607
RWRCO

WEATHER ROUNDUP FOR COLORADO
NATIONAL WEATHER SERVICE DENVER/BOULDER CO
1200 AM MDT FRI MAY 06 2016

NOTE: "FAIR" INDICATES FEW OR NO CLOUDS BELOW 12000 FEET WITH NO
SIGNIFICANT WEATHER AND/OR OBSTRUCTIONS TO VISIBILITY.

COZ001>005-013-030-031-060700-
...NORTHWEST COLORADO...

CITY           SKY/WX    TMP DP  RH WIND       PRES   REMARKS
CRAIG          FAIR      45  35  68 S3        30.00F
HAYDEN         FAIR      54  28  37 SE8       30.03S
MEEKER         FAIR      51  35  54 E8        30.00F
MOUNT WERNER   NOT AVBL
STEAMBOAT SPGS FAIR      49  32  51 CALM      30.06S
WALDEN         CLOUDY    50  32  50 SW3       30.17F
$$

COZ006>008-011-060700-
...WEST CENTRAL VALLEYS...

CITY           SKY/WX    TMP DP  RH WIND       PRES   REMARKS
GRAND JUNCTION FAIR      68  34  28 N10       29.89S
MONTROSE       FAIR      60  31  33 SE8       29.98S
EAGLE          FAIR      54  28  37 NE10      30.06S
RIFLE          FAIR      58  33  39 CALM      29.95S
DELTA          NOT AVBL
NUCLA          NOT AVBL
$$

COZ017>023-064>068-060700-
...SOUTHWEST COLORADO...

CITY           SKY/WX    TMP DP  RH WIND       PRES   REMARKS
DURANGO        CLOUDY    65  28  24 SE15G25   30.04F
CORTEZ         MOCLDY    69  34  27 E21G26    29.96F
PAGOSA SPRINGS FAIR      49  29  46 NE3       30.15S
TELLURIDE      CLOUDY    56  22  26 SE7       30.20S
WOLF CREEK PAS FAIR      39  19  45 S14G23    30.41F
$$

COZ009-010-012-014-032>034-037-058>063-060700-
...CENTRAL COLORADO...

CITY           SKY/WX    TMP DP  RH WIND       PRES   REMARKS
ASPEN          FAIR      50  28  42 S7        30.11F
BUENA VISTA    FAIR      45  31  56 W7        30.19S
COPPER MTN     NOT AVBL
BERTHOUD PASS  FAIR      34  27  75 SE30G37   30.43S WCI  20
COTTONWOOD PAS FAIR      54  21  28 SE3       30.29S
GUNNISON       FAIR      48  28  46 N12       30.15S
KREMMLING      FAIR      50  30  46 CALM      30.13S
LEADVILLE      FAIR      39  20  46 N3        30.26F
MONARCH PASS   FAIR      41  21  45 E12G17    30.50F
SALIDA         FAIR      52  26  36 SW7       30.23F
SUNLIGHT       FAIR      45  27  49 SE3       30.31F
WILKERSON PASS FAIR      41  27  56 S8G18     30.40S
$$

COZ069>075-060700-
...SAN LUIS VALLEY/SANGRE DE CRISTO MOUNTAINS...

CITY           SKY/WX    TMP DP  RH WIND       PRES   REMARKS
ALAMOSA        FAIR      50  32  50 S7        30.15S
LA VETA PASS   FAIR      46  23  39 S8        30.31F
SAGUACHE       FAIR      48  30  49 CALM      30.17S
$$

COZ035-036-038>040-060700-
...NORTHERN COLORADO FRONT RANGE...

CITY           SKY/WX    TMP DP  RH WIND       PRES   REMARKS
DENVER INTL AP FAIR      58  39  49 S14       30.04R
DMNS CITY PARK   N/A     65  38  36 SE16      30.03S
AURORA         FAIR      58  40  51 S12       30.06R
FRONT RANGE AP NOT AVBL
ERIE MUNI ARPT FAIR      56  41  56 CALM      30.01S
BOULDER MUN AP FAIR      61  36  39 S3        30.01S
CENTENNIAL     FAIR      57  39  51 SE8       30.06F
BROOMFIELD     FAIR      59  37  44 SW7       30.05R
FORT COLLINS   FAIR      57  39  51 SE8       30.02S
LONGMONT       FAIR      57  40  52 W3        30.02S
$$

COZ041-046-047-076>085-087-088-060700-
...PIKES PEAK/PALMER DIVIDE AND SOUTHERN FOOTHILLS...

CITY           SKY/WX    TMP DP  RH WIND       PRES   REMARKS
COLO. SPRINGS  FAIR      58  38  47 CALM      30.12F
A. F. ACADEMY  FAIR      55  37  50 SE2       30.12F
SCHRIEVER AFB  NOT AVBL
ELLICOTT       FAIR     N/A N/A N/A SE13      30.08F
FALCON         NOT AVBL
FORT CARSON    FAIR      57  38  50 NE5       30.08F
LIMON          FAIR      48  42  80 SE5       30.08F
MONUMENT HILL  FAIR      50  37  62 S16       30.15S
TRINIDAD       FAIR      67  18  15 SW15G25   30.06R
$$

COZ042>045-048>051-090-091-060700-
...NORTHEAST COLORADO...

CITY           SKY/WX    TMP DP  RH WIND       PRES   REMARKS
GREELEY ARPT   FAIR      61  43  51 SW8       30.02R
AKRON          FAIR      60  42  51 S21       30.04S
BURLINGTON     FAIR      56  45  66 S14       30.06S
WRAY           NOT AVBL
STERLING       FAIR      59  45  58 S9        29.99S
HOLYOKE        NOT AVBL
FORT MORGAN    FAIR      58  42  55 SE9G16    30.03S
$$

COZ086-089-092>099-060700-
...SOUTHEAST COLORADO...

CITY           SKY/WX    TMP DP  RH WIND       PRES   REMARKS
PUEBLO         FAIR      57  43  59 CALM      29.99F
LA JUNTA       FAIR      58  44  60 E8        29.99S
LAMAR          FAIR      60  47  61 SE14      29.99S
SPRINGFIELD      N/A     58  43  57 S21       30.04F
$$




USA.gov is the U.S. government's official web portal to all federal, state and local government web resources and services.